{"data":{"norad_id":61697,"intl_designator":"2024-195L","name":"STARLINK-11346 [DTC]","alt_names":[],"object_type":"PAYLOAD","status":"ACTIVE","operator":null,"country":"US","launch_date":"2024-10-30","launch_site_code":"AFWTR","launch_vehicle":null,"mission":null,"orbit_class":"UNKNOWN","rcs_meters":null,"size_class":null,"mass_kg":null,"dimensions":null,"purposes":["comms"],"wikipedia_slug":null,"has_3d_model":false,"image_url":null,"decayed_at":null,"tle_current":{"epoch":"2026-05-25T00:15:29.797056Z","epoch_age_seconds":70226,"freshness":"FRESH","line1":"1 61697U 24195L   26145.01076154  .00001750  00000+0  19293-4 0  9992","line2":"2 61697  53.1585   9.8076 0000688  69.9245 290.1847 15.69716210 91026","mean_motion":15.6971621,"eccentricity":6.88e-5,"inclination_deg":53.1585,"raan_deg":9.8076,"arg_perigee_deg":69.9245,"mean_anomaly_deg":290.1847,"bstar":1.9293e-5,"rev_number":9102,"period_min":91.736327294473,"perigee_km":359.24541603202,"apogee_km":360.17254363884,"semimajor_km":6737.8459798354,"source":"CELESTRAK","updated_at":"2026-05-25T13:38:19.441472Z"}}}